Location: ????????
(55.5667°N, 37.5833°E)
Time: 21:41:43
(UTC+00:00)

ATLAS 3B R/B - Pass Details

Date: 14 April 2026
Orbit: 937 x 1257 km, 63.8° (Epoch: 11 May)

Event Time Altitude Azimuth Distance (km) Brightness Sun altitude
Rises 19:49:37 0° 283° (WNW) 4,192 6.4 -21.5°
Reaches altitude 10° 19:52:34 10° 290° (WNW) 3,239 5.8 -21.7°
Maximum altitude 20:00:08 47° 3° (N) 1,620 4.0 -22.2°
Drops below altitude 10° 20:07:35 10° 76° (ENE) 3,187 5.1 -22.6°
Sets 20:10:28 0° 82° (E) 4,120 5.6 -22.7°
